Time,TemperatureF,DewpointF,PressureIn,WindDirection,WindDirectionDegrees,WindSpeedMPH,WindSpeedGustMPH,Humidity,HourlyPrecipIn,Conditions,Clouds,dailyrainin,SoftwareType,DateUTC
2013-07-18 00:12:00,84.0,81.0,-100.00,West,280,3.0,5.0,90,-99.99,,,-99.99,,2013-07-18 04:12:00,
2013-07-18 00:22:00,84.0,81.0,-100.00,WNW,300,3.0,6.0,90,-99.99,,,-99.99,,2013-07-18 04:22:00,
2013-07-18 00:32:00,84.0,81.0,-100.00,West,270,3.0,6.0,90,-99.99,,,-99.99,,2013-07-18 04:32:00,
2013-07-18 01:02:00,83.0,80.0,-100.00,WNW,285,1.0,3.0,92,-99.99,,,-99.99,,2013-07-18 05:02:00,
2013-07-18 01:42:00,82.0,80.0,-100.00,WNW,295,2.0,4.0,93,-99.99,,,-99.99,,2013-07-18 05:42:00,
2013-07-18 02:01:00,82.0,80.0,-100.00,West,275,1.0,2.0,94,-99.99,,,-99.99,,2013-07-18 06:01:00,
2013-07-18 02:32:00,81.0,79.0,-100.00,WNW,295,1.0,6.0,94,-99.99,,,-99.99,,2013-07-18 06:32:00,
2013-07-18 02:43:00,81.0,79.0,-100.00,West,270,2.0,4.0,95,-99.99,,,-99.99,,2013-07-18 06:43:00,
2013-07-18 02:52:00,80.0,79.0,-100.00,WSW,250,3.0,4.0,95,-99.99,,,-99.99,,2013-07-18 06:52:00,
2013-07-18 03:01:00,80.0,79.0,-100.00,West,260,2.0,4.0,95,-99.99,,,-99.99,,2013-07-18 07:01:00,
2013-07-18 03:12:00,80.0,78.0,-100.00,WSW,255,2.0,3.0,95,-99.99,,,-99.99,,2013-07-18 07:12:00,
2013-07-18 03:22:00,80.0,79.0,-100.00,WSW,250,2.0,4.0,96,-99.99,,,-99.99,,2013-07-18 07:22:00,
2013-07-18 03:32:00,80.0,78.0,-100.00,WSW,250,0.0,2.0,96,-99.99,,,-99.99,,2013-07-18 07:32:00,
2013-07-18 03:42:00,79.0,78.0,-100.00,West,260,2.0,4.0,96,-99.99,,,-99.99,,2013-07-18 07:42:00,
2013-07-18 03:52:00,79.0,78.0,-100.00,West,260,2.0,4.0,96,-99.99,,,-99.99,,2013-07-18 07:52:00,
2013-07-18 04:01:00,79.0,78.0,-100.00,West,260,2.0,4.0,96,-99.99,,,-99.99,,2013-07-18 08:01:00,
2013-07-18 04:11:00,79.0,78.0,-100.00,West,275,3.0,4.0,96,-99.99,,,-99.99,,2013-07-18 08:11:00,
2013-07-18 04:21:00,79.0,78.0,-100.00,WNW,285,2.0,4.0,96,-99.99,,,-99.99,,2013-07-18 08:21:00,
2013-07-18 04:32:00,78.0,78.0,-100.00,West,270,2.0,6.0,97,-99.99,,,-99.99,,2013-07-18 08:32:00,
2013-07-18 04:42:00,78.0,78.0,-100.00,West,275,2.0,5.0,97,-99.99,,,-99.99,,2013-07-18 08:42:00,
2013-07-18 04:51:00,78.0,77.0,-100.00,WNW,295,2.0,4.0,97,-99.99,,,-99.99,,2013-07-18 08:51:00,
2013-07-18 05:01:00,78.0,77.0,-100.00,West,260,1.0,4.0,97,-99.99,,,-99.99,,2013-07-18 09:01:00,
2013-07-18 05:11:00,78.0,77.0,-100.00,SW,230,2.0,4.0,97,-99.99,,,-99.99,,2013-07-18 09:11:00,
2013-07-18 05:32:00,78.0,77.0,-100.00,West,265,1.0,2.0,97,-99.99,,,-99.99,,2013-07-18 09:32:00,
2013-07-18 05:42:00,78.0,77.0,-100.00,West,265,1.0,2.0,97,-99.99,,,-99.99,,2013-07-18 09:42:00,
2013-07-18 06:22:00,77.0,76.0,-100.00,SW,225,2.0,4.0,97,-99.99,,,-99.99,,2013-07-18 10:22:00,
2013-07-18 06:43:00,77.0,76.0,-100.00,WNW,295,1.0,2.0,97,-99.99,,,-99.99,,2013-07-18 10:43:00,
2013-07-18 06:52:00,77.0,76.0,-100.00,WNW,295,1.0,2.0,97,-99.99,,,-99.99,,2013-07-18 10:52:00,
2013-07-18 07:01:00,77.0,76.0,-100.00,WNW,295,1.0,2.0,97,-99.99,,,-99.99,,2013-07-18 11:01:00,
2013-07-18 07:11:00,77.0,77.0,-100.00,SW,235,2.0,4.0,98,-99.99,,,-99.99,,2013-07-18 11:11:00,
2013-07-18 07:22:00,77.0,77.0,-100.00,West,265,2.0,4.0,98,-99.99,,,-99.99,,2013-07-18 11:22:00,
2013-07-18 07:43:00,78.0,78.0,-100.00,WSW,255,2.0,4.0,98,-99.99,,,-99.99,,2013-07-18 11:43:00,
2013-07-18 08:11:00,79.0,78.0,-100.00,WSW,250,2.0,6.0,97,-99.99,,,-99.99,,2013-07-18 12:11:00,
2013-07-18 08:22:00,79.0,78.0,-100.00,WSW,250,2.0,6.0,97,-99.99,,,-99.99,,2013-07-18 12:22:00,
2013-07-18 08:32:00,80.0,79.0,-100.00,West,270,3.0,5.0,97,-99.99,,,-99.99,,2013-07-18 12:32:00,
2013-07-18 08:42:00,81.0,80.0,-100.00,WNW,290,4.0,7.0,95,-99.99,,,-99.99,,2013-07-18 12:42:00,
2013-07-18 10:43:00,88.0,81.0,-100.00,WSW,240,1.0,6.0,80,-99.99,,,-99.99,,2013-07-18 14:43:00,
2013-07-18 11:43:00,91.0,82.0,-100.00,SSW,205,3.0,7.0,75,-99.99,,,-99.99,,2013-07-18 15:43:00,
2013-07-18 12:11:00,92.0,81.0,-100.00,SW,225,6.0,9.0,71,-99.99,,,-99.99,,2013-07-18 16:11:00,
2013-07-18 12:42:00,93.0,81.0,-100.00,WNW,285,4.0,11.0,67,-99.99,,,-99.99,,2013-07-18 16:42:00,
2013-07-18 13:02:00,92.0,80.0,-100.00,WSW,240,5.0,7.0,67,-99.99,,,-99.99,,2013-07-18 17:02:00,
2013-07-18 13:22:00,92.0,80.0,-100.00,West,265,4.0,12.0,68,-99.99,,,-99.99,,2013-07-18 17:22:00,
2013-07-18 13:43:00,94.0,81.0,-100.00,WSW,240,4.0,11.0,66,-99.99,,,-99.99,,2013-07-18 17:43:00,
2013-07-18 14:01:00,92.0,80.0,-100.00,West,270,6.0,11.0,68,-99.99,,,-99.99,,2013-07-18 18:01:00,
2013-07-18 14:11:00,93.0,80.0,-100.00,WNW,295,5.0,12.0,65,-99.99,,,-99.99,,2013-07-18 18:11:00,
2013-07-18 14:22:00,93.0,80.0,-100.00,WSW,250,7.0,14.0,64,-99.99,,,-99.99,,2013-07-18 18:22:00,
2013-07-18 14:32:00,94.0,79.0,-100.00,SW,220,5.0,12.0,62,-99.99,,,-99.99,,2013-07-18 18:32:00,
2013-07-18 14:43:00,95.0,79.0,-100.00,WNW,285,8.0,11.0,60,-99.99,,,-99.99,,2013-07-18 18:43:00,
2013-07-18 15:11:00,94.0,80.0,-100.00,SW,235,7.0,11.0,63,-99.99,,,-99.99,,2013-07-18 19:11:00,
2013-07-18 15:22:00,95.0,79.0,-100.00,SW,220,7.0,12.0,61,-99.99,,,-99.99,,2013-07-18 19:22:00,
2013-07-18 15:32:00,95.0,79.0,-100.00,SW,230,7.0,12.0,60,-99.99,,,-99.99,,2013-07-18 19:32:00,
2013-07-18 15:43:00,94.0,79.0,-100.00,West,270,7.0,10.0,62,-99.99,,,-99.99,,2013-07-18 19:43:00,
2013-07-18 15:53:00,94.0,79.0,-100.00,West,270,7.0,10.0,62,-99.99,,,-99.99,,2013-07-18 19:53:00,
2013-07-18 16:02:00,94.0,79.0,-100.00,West,270,7.0,10.0,62,-99.99,,,-99.99,,2013-07-18 20:02:00,
2013-07-18 17:01:00,95.0,80.0,-100.00,WSW,245,4.0,11.0,61,-99.99,,,-99.99,,2013-07-18 21:01:00,
2013-07-18 17:11:00,95.0,80.0,-100.00,WSW,245,4.0,11.0,61,-99.99,,,-99.99,,2013-07-18 21:11:00,
2013-07-18 17:22:00,95.0,79.0,-100.00,WSW,255,7.0,13.0,61,-99.99,,,-99.99,,2013-07-18 21:22:00,
2013-07-18 17:32:00,94.0,79.0,-100.00,West,260,7.0,13.0,60,-99.99,,,-99.99,,2013-07-18 21:32:00,
2013-07-18 17:43:00,94.0,79.0,-100.00,West,260,7.0,13.0,60,-99.99,,,-99.99,,2013-07-18 21:43:00,
2013-07-18 17:52:00,94.0,79.0,-100.00,SW,235,4.0,12.0,61,-99.99,,,-99.99,,2013-07-18 21:52:00,
2013-07-18 18:01:00,95.0,79.0,-100.00,West,280,6.0,12.0,59,-99.99,,,-99.99,,2013-07-18 22:01:00,
2013-07-18 18:22:00,95.0,79.0,-100.00,WSW,240,7.0,12.0,59,-99.99,,,-99.99,,2013-07-18 22:22:00,
2013-07-18 18:32:00,94.0,79.0,-100.00,West,260,9.0,12.0,62,-99.99,,,-99.99,,2013-07-18 22:32:00,
2013-07-18 18:43:00,94.0,80.0,-100.00,West,260,7.0,12.0,64,-99.99,,,-99.99,,2013-07-18 22:43:00,
2013-07-18 19:02:00,93.0,80.0,-100.00,West,280,7.0,12.0,64,-99.99,,,-99.99,,2013-07-18 23:02:00,
2013-07-18 19:22:00,93.0,79.0,-100.00,West,260,6.0,9.0,63,-99.99,,,-99.99,,2013-07-18 23:22:00,
2013-07-18 19:32:00,93.0,79.0,-100.00,West,280,4.0,11.0,63,-99.99,,,-99.99,,2013-07-18 23:32:00,
2013-07-18 19:42:00,92.0,79.0,-100.00,West,280,4.0,10.0,64,-99.99,,,-99.99,,2013-07-18 23:42:00,
2013-07-18 19:52:00,92.0,79.0,-100.00,WSW,250,6.0,9.0,65,-99.99,,,-99.99,,2013-07-18 23:52:00,
2013-07-18 20:01:00,92.0,79.0,-100.00,West,275,6.0,9.0,65,-99.99,,,-99.99,,2013-07-19 00:01:00,
2013-07-18 20:11:00,92.0,79.0,-100.00,West,265,4.0,9.0,66,-99.99,,,-99.99,,2013-07-19 00:11:00,
2013-07-18 20:22:00,92.0,79.0,-100.00,West,265,4.0,9.0,66,-99.99,,,-99.99,,2013-07-19 00:22:00,
2013-07-18 20:32:00,91.0,79.0,-100.00,SW,225,3.0,9.0,68,-99.99,,,-99.99,,2013-07-19 00:32:00,
2013-07-18 20:43:00,91.0,79.0,-100.00,SSW,205,3.0,9.0,69,-99.99,,,-99.99,,2013-07-19 00:43:00,
2013-07-18 20:52:00,90.0,80.0,-100.00,WSW,250,3.0,6.0,70,-99.99,,,-99.99,,2013-07-19 00:52:00,
2013-07-18 21:01:00,90.0,80.0,-100.00,SW,235,4.0,6.0,71,-99.99,,,-99.99,,2013-07-19 01:01:00,
2013-07-18 21:11:00,89.0,80.0,-100.00,SW,235,6.0,9.0,73,-99.99,,,-99.99,,2013-07-19 01:11:00,
2013-07-18 21:32:00,89.0,80.0,-100.00,SW,230,4.0,7.0,75,-99.99,,,-99.99,,2013-07-19 01:32:00,
2013-07-18 22:02:00,88.0,81.0,-100.00,WSW,250,2.0,4.0,78,-99.99,,,-99.99,,2013-07-19 02:02:00,
2013-07-18 22:42:00,87.0,81.0,-100.00,SW,235,2.0,6.0,81,-99.99,,,-99.99,,2013-07-19 02:42:00,
2013-07-18 23:11:00,87.0,81.0,-100.00,WSW,250,3.0,6.0,82,-99.99,,,-99.99,,2013-07-19 03:11:00,
2013-07-18 23:32:00,87.0,81.0,-100.00,WSW,250,3.0,6.0,82,-99.99,,,-99.99,,2013-07-19 03:32:00,